GFSSW_850_rhum_159.txt.gz
RH
84 83 79 76 72 68 65 65 63 59 57 53 50 46 44 41 38 16 10 5 13 4 3 5 8 8 11 13 14 18 24 26 24 22 13 6 8 9 10 12 12 11 21 42 47
91 91 89 84 86 82 80 72 68 67 63 58 54 51 49 44 40 15 14 13 10 4 7 7 7 10 10 10 10 18 23 23 20 17 9 6 6 8 10 12 22 20 27 37 34
94 95 94 94 88 87 83 81 78 74 72 66 63 57 52 48 40 16 30 24 8 5 10 9 8 9 11 12 13 18 15 18 16 15 10 7 6 6 10 10 18 27 35 36 34
99 100 100 99 99 94 89 84 82 80 76 75 70 66 61 55 45 32 38 22 8 12 12 10 8 9 13 12 11 12 12 14 12 12 8 6 6 7 9 10 10 19 31 34 31
98 98 99 98 99 99 99 99 95 82 82 78 72 67 63 65 54 46 35 15 13 14 13 10 9 10 11 10 10 11 11 12 10 9 8 7 7 7 20 12 14 21 33 35 32
93 98 100 99 97 95 95 96 99 96 84 81 75 67 67 74 49 46 26 18 15 14 11 10 10 10 10 12 11 12 14 13 11 10 9 8 9 8 33 32 33 34 38 37 35
100 98 98 98 99 96 97 97 97 99 87 84 82 76 75 53 46 54 53 49 41 13 11 11 11 11 11 12 12 14 14 14 12 10 9 8 9 10 26 46 47 42 41 39 38
57 63 67 73 89 83 85 90 98 91 89 86 87 83 79 46 37 48 58 48 41 16 13 12 12 12 12 12 14 13 15 14 12 10 10 9 11 11 37 43 52 57 51 46 45
45 42 38 43 47 57 60 54 69 72 65 54 60 78 64 45 52 47 41 37 43 41 16 13 12 13 14 16 15 17 15 17 14 12 10 10 11 18 49 43 51 56 58 50 46
31 28 30 32 37 39 42 42 46 41 46 40 56 70 35 26 49 36 32 27 33 40 15 14 14 18 20 15 34 20 18 18 17 12 12 13 12 25 47 47 48 57 61 60 50
14 16 15 16 22 30 34 38 46 61 78 38 54 48 56 50 44 31 26 31 27 19 21 16 19 22 18 18 16 18 19 18 18 15 15 16 14 13 44 48 56 58 60 62 61
19 13 11 10 11 19 32 54 75 85 91 50 46 64 34 43 54 48 49 22 17 21 20 21 23 21 19 18 19 20 20 19 18 16 17 15 13 13 44 45 48 53 60 62 68
39 23 14 12 11 12 23 58 80 86 93 71 41 52 42 45 60 35 38 45 20 26 21 25 24 22 20 20 21 22 22 24 19 18 13 12 12 30 42 55 57 60 61 67 66
71 54 33 18 19 29 36 55 85 84 77 50 64 58 65 56 56 35 40 40 22 24 23 22 20 22 24 24 22 29 22 21 22 20 22 14 20 15 39 45 54 56 64 65 67
85 66 46 32 49 48 69 78 83 90 39 30 55 54 65 54 50 46 49 50 46 25 23 32 24 24 25 24 22 26 25 25 24 22 19 18 18 16 43 48 47 55 63 67 68
84 83 60 46 45 59 70 87 92 68 33 21 54 63 70 64 58 51 58 51 46 48 29 28 23 20 21 21 22 23 21 21 22 21 24 20 18 18 29 30 40 55 65 71 61
85 87 74 64 52 50 92 99 90 60 28 26 46 65 65 65 65 56 55 60 56 67 68 52 40 22 19 21 20 18 22 30 28 26 29 21 19 18 28 38 41 54 63 70 63
89 88 77 65 64 66 100 98 93 57 35 38 39 36 56 54 60 58 53 59 52 38 51 65 56 36 24 26 36 24 23 35 44 34 28 24 22 17 51 59 54 55 63 74 65
83 88 84 73 69 80 100 97 75 64 50 60 36 32 37 33 37 48 62 61 50 42 57 54 51 31 24 23 27 31 30 24 38 39 37 27 25 58 60 61 64 67 71 74 68
92 94 88 71 72 96 100 73 70 57 48 50 46 40 39 33 32 38 50 48 54 48 49 50 59 34 23 22 23 28 25 36 55 87 74 37 28 23 56 60 64 66 69 74 67
100 99 82 74 81 99 95 76 58 55 46 51 54 67 65 66 59 57 50 50 43 44 50 48 58 47 24 30 30 30 36 33 36 40 47 49 34 30 42 54 62 63 68 73 65
100 99 78 73 98 98 88 68 56 55 53 56 58 70 69 66 67 57 62 59 50 44 45 64 79 80 57 36 24 24 31 31 48 41 40 37 34 47 50 51 56 60 68 68 58
99 92 80 84 96 94 77 71 62 63 55 56 65 56 61 67 62 62 52 41 44 52 57 54 84 82 62 59 47 44 42 40 58 70 46 55 47 55 54 56 59 61 66 68 62
98 98 99 99 84 71 72 69 73 69 64 62 61 59 64 66 62 70 66 56 50 52 57 60 74 77 74 63 60 62 50 36 47 68 58 46 36 53 61 60 62 63 66 73 77
98 98 85 97 96 85 71 60 67 70 66 69 68 62 59 62 61 60 54 50 46 42 44 54 58 52 58 60 59 57 53 58 64 45 54 43 38 30 50 60 61 64 74 77 79
98 97 98 90 73 95 85 74 68 59 61 70 70 56 63 68 56 55 59 52 56 71 84 89 77 85 84 67 67 69 62 50 54 51 43 39 37 25 41 57 64 66 72 74 79
99 94 72 79 88 89 76 81 81 66 60 62 62 68 71 62 58 56 56 56 57 63 65 69 82 78 70 70 72 89 74 67 69 53 45 59 45 39 44 60 64 70 71 75 76

GFSSW_850_rhum_162.txt.gz
RH
87 86 86 83 81 78 75 70 66 65 60 56 50 47 46 40 38 23 13 9 12 3 6 6 10 9 10 13 16 18 13 12 13 16 13 9 10 9 10 11 14 20 28 50 84
93 93 93 90 88 84 83 77 75 75 71 65 61 57 53 45 39 24 16 18 9 3 8 10 8 10 9 11 11 12 14 13 14 13 11 8 9 9 9 12 17 30 46 59 59
90 95 98 97 98 92 85 80 77 78 80 74 69 64 58 52 44 18 26 36 24 7 11 12 10 10 9 10 11 11 12 13 13 12 9 6 6 7 8 10 14 25 43 48 44
87 91 93 94 97 98 100 95 85 73 80 80 72 67 61 55 38 35 42 41 20 13 14 13 12 12 12 10 10 11 10 11 10 10 9 7 6 6 7 10 11 22 38 40 39
87 90 92 90 93 93 96 96 97 90 85 81 76 74 64 58 51 46 47 32 15 16 14 13 13 12 14 9 9 9 9 9 9 8 9 8 8 7 8 17 15 32 38 36 37
90 86 89 81 90 92 92 94 90 90 92 61 77 72 78 61 48 49 48 25 18 17 15 12 12 11 10 10 10 10 9 9 9 8 9 8 8 7 18 26 31 38 36 38 41
78 82 90 88 91 90 93 87 81 62 39 67 68 78 81 59 46 45 47 53 48 30 18 12 12 12 12 12 11 10 11 9 8 8 8 8 9 8 18 27 32 33 36 38 41
43 48 47 56 48 44 47 46 40 39 35 46 50 50 55 40 34 39 40 45 50 48 15 16 13 14 14 14 12 12 12 16 11 9 8 8 12 8 23 25 28 33 36 40 44
38 38 38 34 34 32 32 36 41 38 42 35 37 59 32 39 55 48 46 40 45 41 19 13 14 16 15 17 19 15 22 18 16 9 8 9 11 10 21 22 22 31 36 40 45
31 31 27 24 23 22 22 25 32 32 40 43 57 55 33 20 39 41 37 30 30 37 29 15 16 18 15 18 28 25 22 20 20 12 10 11 11 9 20 23 19 28 32 38 44
19 16 15 15 13 13 15 37 57 67 81 35 37 37 40 54 42 35 26 32 24 32 33 19 23 26 21 18 18 18 20 21 18 12 13 13 13 11 14 22 21 25 30 36 41
21 14 14 12 10 9 14 65 82 74 53 49 43 52 34 53 48 43 36 23 28 28 26 21 28 22 18 17 17 18 21 21 18 14 15 15 16 13 11 20 19 22 29 36 43
42 26 16 12 12 11 22 75 68 84 68 39 47 43 40 50 40 25 42 36 24 25 24 29 23 18 21 21 21 22 24 24 22 17 16 16 18 16 11 18 21 24 27 35 42
73 56 32 17 14 19 43 36 82 85 53 21 39 51 58 48 39 33 26 37 33 28 21 23 19 22 23 25 22 31 24 24 22 22 26 14 20 15 15 22 27 29 30 36 43
87 78 53 33 35 45 52 54 82 85 38 21 41 55 63 45 43 45 44 32 26 29 27 25 23 24 26 26 23 28 22 23 22 24 25 22 22 16 13 18 21 27 33 39 45
81 84 74 51 37 45 50 77 86 60 31 13 41 50 56 54 43 50 53 47 42 27 26 27 20 21 23 20 21 19 21 21 21 24 32 23 23 18 16 17 16 18 29 40 48
78 78 79 67 83 48 78 94 78 51 12 18 32 50 50 47 52 44 52 53 46 59 48 33 26 22 23 27 19 19 23 29 28 28 24 17 20 17 17 21 22 20 28 41 52
79 85 87 76 63 59 98 95 82 21 20 19 31 29 39 42 45 49 47 49 49 45 46 48 43 34 30 32 28 26 26 36 40 30 23 18 23 16 25 32 34 34 36 48 56
84 90 89 77 66 73 99 94 37 19 14 21 19 20 16 23 33 37 44 43 44 46 58 54 47 30 26 27 28 34 38 29 43 37 40 26 18 22 27 29 37 36 42 53 61
90 94 99 70 72 84 99 66 40 30 26 32 28 17 19 14 17 26 27 39 43 42 42 48 52 28 27 24 23 28 24 39 51 82 79 38 32 25 28 28 38 41 47 55 60
96 100 94 72 77 94 94 53 39 32 39 32 27 27 26 27 32 19 17 29 37 37 38 45 51 28 28 31 33 30 35 34 42 52 54 42 26 23 26 24 34 39 47 56 60
100 100 82 77 95 85 86 54 41 38 44 43 40 33 30 31 39 38 36 32 37 31 33 43 52 47 34 28 29 27 29 31 56 50 37 36 32 25 27 28 32 37 50 55 60
99 99 84 100 92 87 57 51 46 47 42 42 44 39 36 38 43 31 28 38 38 38 55 49 50 52 40 36 42 45 36 36 36 50 48 53 36 26 31 34 36 41 50 56 58
97 98 99 100 67 55 56 58 57 48 46 44 40 42 44 45 37 38 30 35 45 38 41 40 49 44 43 28 42 59 54 42 53 93 57 62 49 28 24 37 39 46 50 55 58
99 98 77 98 94 65 48 48 54 65 56 50 47 47 42 45 39 40 35 34 33 34 43 34 53 42 38 33 32 31 33 32 52 47 64 47 36 28 26 29 36 44 50 53 59
98 96 97 54 63 73 66 60 50 40 42 54 54 40 43 48 39 33 40 48 48 40 44 55 64 47 46 32 27 31 27 27 31 34 28 30 36 21 20 30 36 41 49 53 60
98 82 70 59 64 74 71 62 52 42 46 45 46 53 48 42 49 43 42 40 42 49 50 52 56 60 66 37 42 74 50 40 51 37 34 49 36 28 29 36 39 43 48 55 62

GFSSW_850_rhum_168.txt.gz
RH
92 91 89 82 83 83 77 76 72 71 68 63 58 52 48 44 38 35 37 18 17 18 15 13 10 8 8 9 9 10 13 13 10 11 9 9 9 10 10 11 14 17 32 43 62
88 86 86 85 82 82 75 71 66 65 58 59 60 54 48 46 35 38 34 30 21 31 31 17 16 15 14 10 8 9 12 11 8 10 10 10 9 9 10 10 15 33 57 59 73
95 88 85 85 83 78 78 74 64 59 50 51 53 58 51 46 44 24 25 22 21 29 33 18 17 16 15 13 10 9 11 8 8 9 10 9 8 8 9 10 12 27 55 63 65
91 89 89 83 81 75 78 76 65 65 54 39 34 29 31 38 38 33 36 37 36 33 31 18 18 18 17 17 14 13 10 10 10 9 9 9 8 7 8 8 10 26 44 52 53
94 90 87 80 63 70 70 63 63 50 36 30 26 16 16 43 40 36 38 38 34 23 18 18 19 19 19 15 14 14 11 11 11 10 9 9 9 8 7 8 12 32 40 45 45
86 86 82 60 51 42 50 45 43 36 31 21 17 18 47 36 24 36 40 38 36 32 22 20 20 18 16 16 18 15 14 12 10 10 10 10 9 9 8 9 12 26 32 35 34
68 51 36 34 32 32 28 26 22 24 19 19 19 24 58 33 14 22 24 26 32 34 31 26 25 18 18 21 17 14 15 13 13 12 12 10 11 10 9 9 11 21 25 25 26
35 33 29 28 27 24 22 21 21 20 19 20 21 28 47 17 17 18 19 25 28 29 34 31 26 20 19 22 21 21 19 23 15 12 12 10 14 9 9 9 11 19 20 21 23
31 29 28 27 27 26 23 20 17 15 14 18 17 59 47 24 25 23 33 29 28 26 27 31 21 20 22 26 26 20 28 21 17 10 11 11 13 9 10 10 12 17 19 20 23
29 26 24 22 20 18 15 11 10 8 19 38 62 45 29 22 15 22 30 30 31 32 35 32 23 24 24 27 35 25 19 17 17 12 11 12 12 10 9 10 12 15 17 18 21
29 22 19 16 13 10 7 10 38 79 73 37 31 32 18 20 27 24 24 24 26 22 27 29 29 26 20 20 20 19 20 20 16 12 13 13 14 12 10 12 13 12 16 17 21
43 30 20 14 11 9 7 41 52 68 51 32 41 36 27 20 19 17 21 21 19 22 17 20 31 23 16 15 17 20 21 20 17 15 14 14 14 13 12 13 12 12 13 16 19
71 45 30 17 11 8 33 47 70 65 42 21 17 15 13 14 15 13 14 15 20 20 16 19 17 15 18 17 16 20 24 23 23 18 17 18 20 17 12 11 12 12 13 14 19
84 76 57 26 21 60 52 69 68 70 49 18 14 18 17 15 19 17 16 14 14 22 21 16 14 14 17 18 18 23 17 18 20 22 28 19 30 19 14 12 12 12 14 14 18
85 87 79 48 83 63 93 62 86 88 50 13 20 32 35 25 24 26 29 19 19 16 17 26 19 16 17 17 15 21 17 16 17 22 26 25 23 16 13 14 12 13 14 16 16
86 87 81 74 80 52 81 34 77 77 59 13 18 25 27 32 28 31 41 30 27 21 17 19 21 22 18 15 16 16 17 18 20 26 37 26 22 19 14 12 12 13 13 16 26
93 86 78 63 86 91 50 91 86 75 12 12 13 16 26 27 34 31 32 40 40 39 36 24 24 22 20 21 19 19 28 41 37 39 36 18 20 18 12 12 13 15 16 18 21
92 89 78 73 66 82 81 91 86 23 19 11 15 18 22 26 22 24 30 33 34 32 33 37 37 22 16 20 24 22 26 41 42 37 28 16 22 17 14 14 18 14 18 22 35
99 96 94 89 76 83 77 93 48 30 17 13 11 13 16 15 15 18 36 43 29 60 72 46 28 16 21 22 18 26 29 22 39 35 44 28 21 16 15 17 18 18 18 28 37
99 98 97 95 86 90 86 72 34 18 15 15 22 19 17 14 17 18 19 16 18 37 46 64 75 28 26 32 26 24 22 46 77 88 64 38 30 25 31 29 22 22 27 34 43
100 100 92 86 86 99 96 61 35 27 19 20 29 31 22 19 16 18 19 16 20 37 37 43 66 42 30 52 45 38 42 56 64 84 88 64 37 29 28 35 36 28 34 38 44
100 99 87 85 98 97 98 52 36 28 26 24 25 41 45 31 33 31 26 29 39 32 34 39 52 74 37 36 27 28 45 46 69 58 54 49 41 21 30 29 32 28 32 40 45
98 100 95 90 97 94 55 48 44 39 31 29 31 29 41 30 37 29 26 42 38 37 52 41 44 48 34 26 20 26 39 48 68 80 87 82 57 24 30 28 42 41 40 40 47
99 99 100 100 99 64 64 56 45 34 32 28 26 29 25 35 45 36 29 54 49 35 35 34 34 39 50 34 30 50 38 32 48 94 88 65 47 31 31 33 50 39 44 52 49
100 99 96 99 97 78 51 46 48 44 30 30 28 36 42 37 38 30 27 26 50 32 31 28 42 30 23 20 18 20 20 21 35 56 81 62 56 35 29 25 20 22 36 46 49
99 100 100 74 62 80 75 66 54 48 42 43 42 36 33 38 30 34 42 35 46 31 33 29 43 33 33 23 20 21 19 19 19 19 18 21 21 13 13 15 15 15 21 38 46
96 99 99 92 71 79 78 65 74 55 37 41 43 76 72 55 68 66 57 54 46 44 47 38 62 48 55 33 31 49 34 27 36 25 23 35 27 22 24 22 20 22 32 44 53

GFSSW_850_rhum_174.txt.gz
RH
74 74 74 77 77 71 63 58 53 51 47 43 38 35 34 33 30 28 28 30 34 30 30 24 24 23 17 16 16 14 17 23 20 17 16 12 12 10 24 30 42 48 52 65 88
77 77 72 76 75 69 63 62 53 43 41 34 27 24 22 22 26 26 28 32 34 33 29 28 28 22 18 18 18 18 21 17 17 14 13 12 11 10 15 49 63 52 50 73 90
75 76 72 72 67 66 62 62 40 29 27 23 20 17 16 15 20 27 30 35 34 35 34 28 25 19 20 20 21 20 23 16 15 12 11 10 10 10 10 16 45 59 70 77 88
75 74 74 69 67 69 58 43 28 24 22 20 16 14 12 13 28 32 36 25 34 37 37 26 18 18 23 25 21 22 19 19 18 16 13 11 10 10 11 10 10 30 29 69 85
78 74 67 66 58 47 38 28 24 20 18 18 15 12 12 17 17 18 19 28 32 40 34 34 33 23 25 23 20 20 20 22 20 15 14 13 12 11 10 11 11 41 66 74 81
74 55 46 39 36 31 28 24 20 18 18 19 17 15 13 50 18 19 22 34 39 40 33 32 33 32 28 22 23 20 22 26 24 21 16 16 16 14 13 17 26 43 61 71 74
45 37 33 30 26 23 21 20 18 18 19 18 16 18 16 18 18 13 11 14 29 25 26 25 27 36 30 27 23 21 29 30 27 23 19 17 20 19 14 29 39 55 61 71 68
36 32 29 27 26 24 21 18 16 14 15 13 13 17 14 14 14 19 18 12 14 22 22 22 26 35 33 27 24 26 32 40 28 25 22 21 29 20 15 41 57 56 58 59 58
38 35 33 31 29 26 24 20 15 12 10 10 28 32 22 20 21 18 20 23 28 24 27 21 27 30 31 31 40 39 48 41 35 26 26 24 29 20 15 26 49 56 56 59 60
38 34 29 26 23 19 16 14 11 9 8 17 61 60 26 16 26 23 25 23 28 30 29 32 26 31 35 39 54 48 50 41 41 30 22 22 24 20 16 15 35 45 49 53 55
52 42 30 26 20 16 12 9 46 45 78 43 58 30 24 25 26 25 25 24 21 25 41 34 49 48 40 37 31 33 38 42 35 28 22 24 23 21 15 14 17 37 39 45 47
68 53 42 28 19 13 9 34 73 86 78 48 40 48 46 38 55 22 22 28 21 32 32 39 45 43 40 35 36 38 42 42 33 26 27 26 28 25 19 17 14 21 32 34 38
76 69 57 33 17 17 59 74 78 70 62 48 32 30 23 16 36 28 18 28 24 25 27 38 32 26 35 43 45 41 39 36 32 25 26 26 28 25 21 16 14 16 14 27 31
75 72 74 43 22 73 72 85 79 58 66 47 35 15 16 18 19 16 13 26 21 23 21 24 21 27 28 28 33 43 31 32 32 31 38 24 37 28 24 24 22 18 19 24 32
74 69 73 67 53 78 76 77 70 69 38 17 24 23 24 18 19 39 28 16 21 22 18 23 23 27 30 30 24 29 25 28 30 32 28 30 36 27 24 27 23 19 17 17 27
78 77 75 76 62 84 66 57 46 78 75 39 30 29 31 33 33 27 36 37 29 33 30 27 19 20 24 23 24 29 28 28 26 34 42 31 32 29 28 24 19 16 14 15 30
82 82 77 82 71 81 75 58 89 89 28 19 25 21 20 25 35 38 37 48 49 50 50 37 33 26 21 25 21 30 32 54 50 53 46 30 36 28 24 20 23 22 17 19 36
83 88 78 75 73 65 75 95 95 36 39 16 15 19 24 19 18 40 40 46 59 64 86 84 74 32 43 27 27 28 34 60 56 48 38 29 40 33 23 24 45 51 52 56 60
87 87 93 72 77 80 94 95 66 42 24 20 19 25 26 28 35 34 36 51 50 56 76 91 79 45 35 47 35 31 39 31 46 43 58 47 34 24 30 40 49 53 56 59 64
94 98 91 75 85 91 98 76 65 36 26 28 34 28 42 39 43 49 44 41 51 53 54 65 86 51 44 44 43 38 32 46 75 76 75 52 45 47 54 58 58 60 61 60 67
89 98 94 79 89 100 97 80 56 37 37 41 38 42 38 45 41 48 47 43 48 49 55 56 80 61 46 53 60 70 83 86 77 88 83 73 66 60 72 61 63 61 57 56 55
97 98 88 85 99 99 99 90 51 45 35 43 40 44 46 45 53 50 53 45 40 40 50 52 67 89 60 45 49 70 82 98 99 99 100 81 83 78 76 65 70 70 64 56 56
98 99 89 89 97 96 97 87 74 62 56 51 50 44 41 48 59 57 50 44 40 43 54 46 69 82 59 61 58 86 94 95 90 100 95 97 98 71 60 67 76 79 71 71 61
93 99 97 98 90 97 97 96 82 60 59 56 54 47 53 57 50 60 55 46 53 44 42 47 61 67 74 59 47 55 70 62 77 93 70 78 59 44 55 59 64 78 54 59 64
94 97 98 98 99 96 86 81 76 72 64 51 55 56 56 63 55 53 57 55 58 61 51 55 74 74 63 57 57 46 35 37 50 50 58 38 33 36 36 44 55 39 45 63 64
85 96 95 91 90 88 93 98 90 73 99 76 62 54 46 60 56 58 67 65 69 72 83 85 80 70 60 47 43 44 40 38 36 32 28 30 31 23 28 32 40 39 40 44 54
97 99 98 81 95 93 84 76 84 83 68 66 64 62 68 60 59 58 53 61 67 70 84 90 98 95 82 59 59 77 56 49 60 38 41 54 38 36 38 36 34 34 25 24 31

GFSSW_850_rhum_180.txt.gz
RH
74 72 70 67 65 63 60 58 55 50 44 39 33 34 33 32 30 27 22 27 34 34 35 32 31 28 23 18 16 13 23 23 18 20 18 15 15 13 36 61 64 61 62 72 84
78 71 68 64 63 60 60 57 54 47 40 36 32 33 32 31 28 23 32 36 37 33 29 33 32 27 21 20 20 23 31 26 19 16 18 17 16 12 38 54 52 54 49 60 76
75 73 69 67 67 63 60 54 47 40 34 31 29 30 27 26 26 24 34 33 34 32 27 34 35 21 21 22 23 23 30 23 20 18 18 19 17 12 18 47 36 41 47 57 80
74 72 65 67 63 59 50 42 35 30 26 23 22 23 22 25 32 23 24 23 25 28 20 37 32 32 24 26 24 30 24 22 21 19 24 21 16 14 14 12 13 18 21 36 67
79 71 67 62 56 48 42 35 27 24 23 21 20 20 19 21 25 24 22 19 22 28 29 40 37 34 30 32 32 30 27 24 23 23 23 23 23 20 15 15 14 13 23 35 48
78 71 60 49 40 34 31 28 26 30 31 27 23 19 16 28 26 24 22 20 20 20 17 37 36 35 35 37 27 26 26 27 26 26 26 26 26 21 18 16 15 18 20 36 53
69 54 44 38 35 35 35 36 35 33 32 29 22 18 18 24 23 22 21 17 16 17 15 18 36 29 30 39 33 26 33 34 31 28 30 26 29 26 20 20 23 23 25 35 53
66 60 50 41 40 40 39 37 33 30 26 22 17 13 16 24 20 18 22 23 23 24 22 15 19 23 26 31 35 36 36 47 27 28 25 26 38 28 23 24 31 45 50 53 61
60 55 48 43 38 34 32 29 25 22 20 15 12 13 16 23 21 18 22 26 24 25 27 17 19 23 36 44 55 51 64 48 40 29 30 30 37 28 25 27 37 50 64 74 82
61 51 43 35 29 23 20 17 16 16 23 22 26 30 19 18 22 25 28 30 29 25 27 32 31 43 47 53 49 68 56 49 48 34 36 36 35 30 27 27 27 29 56 76 83
56 49 50 40 30 25 18 14 22 36 71 35 50 31 26 27 28 24 29 29 28 26 40 38 49 55 44 43 40 44 48 50 44 36 40 40 38 34 30 27 24 21 46 69 68
54 49 44 40 35 26 18 49 90 88 96 38 36 49 33 31 54 20 24 32 28 32 28 30 55 48 40 40 41 43 47 49 46 38 40 44 43 35 31 28 23 20 23 56 73
66 65 60 52 46 33 54 70 84 80 99 67 26 40 31 23 48 32 33 34 36 36 33 38 33 31 45 48 55 52 50 52 53 47 44 48 43 35 29 27 22 21 19 29 47
75 70 66 57 48 59 82 80 82 73 65 39 34 27 33 34 25 17 24 32 37 35 37 38 29 29 31 33 40 43 48 51 55 62 75 38 48 30 28 27 26 22 20 19 42
82 77 75 70 65 66 81 68 67 74 52 21 26 21 26 22 18 38 26 33 38 26 28 31 28 30 32 30 29 34 34 39 40 45 43 44 50 36 29 30 28 25 18 19 19
81 82 78 77 70 63 75 65 73 64 44 22 28 22 23 23 23 28 31 24 25 32 30 28 21 21 24 22 22 23 27 30 36 46 57 41 43 35 30 29 25 22 18 28 25
79 78 74 74 74 76 72 58 80 67 27 25 21 20 22 24 21 34 35 44 55 53 55 52 50 36 28 36 29 28 38 55 53 68 50 38 44 33 32 67 66 70 72 57 37
87 84 82 75 78 75 73 88 78 35 33 28 23 20 20 35 36 41 40 52 49 53 73 67 62 42 40 34 37 40 42 66 60 53 45 36 50 47 69 64 66 72 70 64 63
88 89 89 76 86 86 72 100 70 37 25 35 28 21 24 36 42 40 46 48 51 62 65 82 81 52 46 40 40 46 50 37 52 47 55 38 37 71 71 76 67 73 79 78 73
86 93 91 80 88 96 96 80 70 53 38 39 38 33 40 40 36 44 42 45 49 64 63 72 85 51 48 41 47 46 54 84 73 70 62 51 55 64 90 89 82 77 83 81 79
88 89 81 75 86 100 98 97 70 50 50 51 47 40 35 40 44 46 41 41 41 40 49 62 89 70 52 46 59 64 71 91 93 99 94 72 82 91 95 92 78 86 82 73 78
98 99 86 88 99 100 98 83 73 69 60 61 55 50 49 45 48 48 46 44 36 43 54 60 86 86 74 50 66 67 72 65 95 96 98 97 98 95 96 81 75 78 86 78 70
99 98 90 100 98 95 83 76 78 77 73 78 85 60 52 47 52 49 45 35 33 43 60 56 97 93 62 70 49 86 84 80 90 93 94 94 90 91 93 74 76 78 79 79 83
99 98 98 99 99 99 97 95 92 85 85 86 82 94 95 88 62 64 61 46 45 55 49 55 81 71 70 54 51 75 84 82 80 98 88 88 66 80 84 78 68 73 81 88 74
99 98 87 93 98 93 89 97 96 83 70 66 85 76 77 90 92 82 65 56 49 44 47 64 67 76 66 56 54 57 61 73 90 74 75 55 51 40 38 64 56 54 65 90 88
97 92 95 79 89 95 87 89 78 68 64 68 91 91 98 97 82 77 83 66 66 76 88 87 68 79 78 69 72 71 65 60 58 54 67 58 50 35 30 31 49 55 63 79 87
96 88 86 85 96 99 92 72 68 64 56 66 67 72 68 59 64 98 99 100 97 93 85 98 98 90 78 74 76 96 68 60 64 51 46 56 43 36 46 45 40 59 62 63 83

GFSSW_850_rhum_183.txt.gz
RH
67 66 64 61 60 58 58 54 54 51 46 43 40 37 35 32 30 26 24 27 32 33 35 33 32 30 26 19 14 13 18 19 16 18 15 16 17 18 37 62 68 63 55 62 58
74 70 66 64 65 62 59 55 51 47 43 40 36 33 30 29 29 25 34 35 36 32 29 27 26 28 25 21 20 17 22 20 15 15 18 17 18 16 37 53 60 53 48 47 58
81 74 72 68 68 65 59 52 47 42 37 34 31 31 31 32 29 25 35 31 30 31 33 28 28 27 22 22 24 24 24 23 18 16 18 20 20 14 19 35 38 43 35 46 67
83 77 73 67 63 59 51 42 36 32 28 29 31 33 34 32 33 26 26 26 25 22 22 21 33 36 23 24 26 27 25 23 22 21 25 23 21 18 16 15 13 12 24 42 60
84 79 73 71 61 52 43 37 34 31 31 32 33 34 34 25 28 27 25 22 20 21 22 33 39 36 32 30 34 32 27 26 25 25 25 25 23 22 21 18 16 15 15 16 36
86 80 75 66 54 46 40 39 40 40 39 38 37 34 28 30 27 26 25 24 22 22 21 20 37 35 35 36 32 29 29 30 30 29 29 26 23 26 20 18 19 18 16 17 25
90 81 69 67 62 56 49 46 42 40 37 29 27 26 24 28 28 26 25 22 19 18 18 17 19 38 32 36 35 31 35 30 26 28 28 29 27 26 22 21 22 24 24 27 22
87 77 72 66 61 57 52 46 39 32 29 25 20 16 23 26 23 22 20 25 25 24 26 27 16 25 28 28 36 33 38 33 25 27 25 25 22 21 26 31 27 25 27 35 35
77 62 60 57 53 48 41 31 24 20 17 18 19 16 19 24 23 21 21 26 27 26 28 24 23 27 37 33 37 46 36 40 32 27 27 28 31 24 25 27 28 32 34 44 49
71 68 59 48 40 34 30 26 23 20 24 29 30 29 21 20 23 26 29 33 29 28 29 26 31 34 41 32 35 36 48 47 36 30 32 31 31 26 28 28 28 28 28 29 47
65 57 50 42 35 28 22 17 27 37 42 35 41 41 26 28 26 26 32 31 26 27 32 40 39 42 30 31 24 30 40 37 31 31 35 32 32 31 29 30 30 27 26 29 24
67 61 55 47 35 24 19 36 75 75 93 30 24 45 27 35 50 22 33 32 28 30 31 34 46 40 38 38 39 38 42 43 37 34 39 39 40 32 29 29 27 26 25 22 20
72 66 57 48 32 30 51 72 82 79 98 54 53 51 33 34 49 32 30 33 34 35 30 33 30 33 42 43 47 46 48 47 46 38 39 41 32 21 22 28 26 25 23 23 21
76 69 58 53 44 50 78 76 74 72 44 32 24 28 34 38 32 20 30 30 37 33 34 33 26 29 32 35 41 42 40 41 42 49 44 38 41 28 22 21 22 22 24 24 34
78 74 64 60 52 49 67 66 62 51 59 23 28 23 26 28 21 36 29 36 36 31 31 29 29 34 35 32 28 32 28 35 42 46 49 37 42 25 23 22 20 30 54 54 37
76 73 69 64 58 50 49 62 60 60 52 23 21 20 17 23 23 28 30 28 29 34 31 29 23 22 25 24 26 25 26 29 33 35 40 32 36 26 31 59 48 53 62 67 50
82 80 72 67 68 61 47 56 74 58 25 25 20 20 20 29 27 34 40 42 50 47 50 47 44 32 23 24 29 27 31 35 36 44 39 26 35 29 54 64 63 66 71 73 72
86 82 78 75 75 68 62 77 70 36 32 29 25 21 23 32 35 34 37 42 45 52 61 57 54 47 38 36 39 37 34 41 45 37 33 34 37 31 65 61 65 69 74 76 77
87 85 77 76 79 75 69 93 58 45 31 35 23 24 24 36 32 30 35 47 54 63 69 77 63 45 48 39 38 46 45 34 47 43 53 37 44 77 62 66 66 65 67 74 79
84 89 80 82 86 84 92 77 63 50 46 45 36 31 29 30 32 33 31 36 41 54 49 85 86 55 48 42 44 49 47 65 79 82 61 40 40 41 86 72 59 63 70 74 79
85 78 79 84 96 98 98 86 77 56 52 54 47 44 39 36 31 33 31 33 31 38 44 45 81 64 52 54 64 65 68 81 78 92 92 80 76 86 85 76 69 57 70 74 78
90 96 83 98 99 98 93 90 70 70 62 62 72 59 58 53 50 42 40 31 33 36 36 40 70 62 50 42 50 66 87 63 92 87 88 85 82 74 74 70 71 59 54 80 80
96 90 89 99 98 92 82 76 71 70 66 73 77 75 63 62 69 55 48 33 27 27 36 56 71 62 39 52 62 68 71 72 99 95 75 81 83 81 81 79 79 63 64 80 82
91 99 100 100 100 94 95 91 82 82 75 74 70 75 72 69 69 84 73 56 57 49 45 57 63 61 61 39 48 59 72 84 77 92 72 68 51 65 81 78 67 66 47 70 88
96 98 84 92 92 91 93 91 91 88 89 78 80 82 73 90 81 74 73 81 68 55 48 54 61 57 52 49 50 53 50 49 74 60 66 48 46 37 37 41 43 50 58 66 81
94 92 94 88 79 88 87 90 78 67 58 72 74 61 73 83 73 92 87 76 94 70 62 68 60 47 53 48 51 62 54 59 56 55 59 55 51 34 35 34 33 33 48 56 73
90 84 76 88 88 95 86 66 59 61 53 51 56 67 71 70 58 69 80 86 76 89 92 96 91 78 79 54 58 86 66 61 65 51 50 56 37 34 36 50 50 56 64 62 64

GFSSW_850_rhum_186.txt.gz
RH
71 69 67 63 60 59 56 52 50 48 45 42 38 35 33 33 30 26 26 26 32 32 34 31 29 26 24 20 16 14 14 12 11 12 10 10 11 16 26 24 42 45 50 60 87
73 72 70 67 62 60 57 52 49 45 43 39 36 34 33 34 31 28 32 34 36 32 31 30 26 23 22 21 18 15 15 13 11 10 10 11 13 14 16 19 23 33 54 72 81
80 79 74 69 63 59 56 51 46 40 37 36 34 34 34 35 31 24 34 34 30 26 26 26 25 25 21 21 20 18 19 15 16 15 14 15 14 14 13 12 14 16 28 68 84
83 81 78 74 69 63 58 51 46 41 39 40 40 38 38 35 27 27 28 28 27 23 25 26 25 24 22 20 19 21 17 18 17 18 18 17 18 18 16 13 14 14 19 55 71
82 84 82 75 73 67 59 50 47 44 45 44 42 39 37 30 29 26 25 24 21 22 20 24 32 27 23 20 21 22 18 19 19 20 20 20 19 19 18 17 17 16 25 36 52
85 86 86 80 72 64 63 58 54 50 48 45 42 38 32 29 28 27 26 27 25 20 20 20 22 28 25 24 23 20 21 20 20 21 21 21 18 16 15 15 16 17 22 23 34
89 91 89 78 70 66 62 56 53 51 47 40 31 28 30 31 27 27 26 26 24 22 21 20 22 29 27 26 26 26 25 18 17 17 16 19 17 17 15 21 22 22 24 26 29
92 94 90 79 72 62 58 53 46 42 38 31 27 22 27 27 25 22 25 32 28 25 26 29 24 21 28 27 27 27 23 26 17 18 17 19 17 11 21 21 19 21 21 21 27
92 90 86 71 65 59 54 45 38 32 31 28 26 23 23 24 22 21 21 32 33 29 28 28 27 21 26 27 26 23 29 22 20 16 18 20 18 14 20 18 17 18 18 19 23
96 86 75 68 60 55 42 35 26 26 29 31 33 36 24 21 28 27 36 32 32 29 30 28 23 21 20 21 28 21 21 25 27 18 22 21 21 16 16 16 19 19 17 18 20
87 79 68 54 45 40 32 22 50 52 52 35 36 31 28 33 24 30 41 34 26 26 25 28 26 27 20 19 19 19 20 21 20 17 22 24 23 20 18 20 22 21 19 16 15
79 60 51 48 42 32 23 37 30 46 42 44 41 46 42 47 41 28 30 29 24 25 21 26 32 23 22 26 26 26 28 28 23 20 28 26 24 19 18 17 17 18 18 16 15
81 66 57 48 36 29 28 37 49 37 58 34 48 44 38 43 34 24 27 26 25 25 24 27 22 22 25 28 32 32 33 31 29 24 24 23 21 16 15 16 16 19 18 17 18
84 69 58 48 42 36 79 57 54 63 39 23 20 27 37 38 30 26 30 24 24 25 20 22 20 22 24 26 25 33 22 26 30 29 30 19 31 20 16 16 16 23 32 35 36
74 68 60 45 39 67 66 58 56 52 66 17 26 25 23 29 22 30 33 30 26 23 24 22 20 22 25 24 21 26 21 23 25 28 28 25 29 22 16 18 16 28 38 44 45
78 71 63 58 50 40 56 56 61 46 62 21 17 15 14 18 18 21 29 29 27 27 26 24 19 19 18 18 21 20 24 25 24 26 33 24 24 20 19 27 32 36 44 51 52
82 78 73 66 66 46 46 64 45 57 18 21 18 16 16 20 20 22 24 26 31 39 33 27 29 22 19 21 18 21 26 33 33 34 34 18 21 21 36 45 46 46 47 53 56
86 82 74 67 63 57 61 46 62 29 22 20 20 17 21 19 21 23 22 24 28 42 39 39 36 37 32 29 25 22 24 35 38 30 24 17 26 25 47 46 45 46 47 51 53
86 81 76 70 64 62 62 73 43 34 26 26 22 23 21 21 23 23 23 25 28 38 49 60 50 38 37 37 34 34 41 24 36 30 34 28 33 51 48 48 44 41 40 46 52
81 81 80 74 69 70 72 55 40 36 32 32 33 24 26 21 24 23 22 19 28 30 31 54 68 35 42 42 35 40 31 53 46 69 51 31 27 24 53 49 42 37 36 41 52
79 87 83 84 83 89 87 59 53 49 46 45 39 35 30 31 29 27 24 20 18 21 31 31 46 50 32 39 72 90 89 86 85 98 84 64 43 50 47 42 38 38 36 44 52
77 95 86 98 91 95 91 64 54 52 54 51 53 49 49 45 49 44 41 30 20 25 31 27 39 63 44 25 24 39 57 55 93 94 93 89 71 50 46 43 42 37 33 46 60
93 96 99 100 91 87 74 58 58 56 50 51 51 48 40 46 52 40 36 29 30 34 35 31 38 42 30 20 18 31 36 43 74 89 84 87 76 55 53 54 46 46 44 45 63
86 100 100 100 97 72 73 71 69 71 57 60 50 48 54 63 45 62 45 35 45 48 48 54 52 42 44 27 21 42 84 63 88 92 76 78 54 41 44 41 35 36 37 40 48
91 93 76 95 99 96 90 82 73 80 67 66 63 60 62 80 52 52 59 57 46 52 61 67 88 53 41 35 32 34 35 34 41 40 54 42 38 34 28 31 26 25 26 35 42
94 94 86 67 70 72 75 68 62 56 54 51 56 50 48 60 52 62 51 49 52 47 53 60 87 64 55 37 30 34 29 29 29 28 27 29 32 24 26 25 26 26 25 28 33
78 76 73 75 73 80 60 49 46 45 40 41 39 43 46 44 39 41 47 51 56 60 60 77 86 89 80 36 36 57 39 34 41 31 31 41 29 25 25 27 26 30 37 42 51